Terminal Aerodrome Forecast
Issued by NWS Upton, NY

Home | Current Version | Previous Version | Text Only | Print | Product List | Glossary On
Versions: 1 2 3 4 5 6 7 8 9 10 11 12 13 14 15 16 17 18 19 20 21 22 23 24 25 26 27 28
000
FTUS41 KOKX 230500
TAFLGA
TAF
KLGA 230526Z 2306/2406 07009KT P6SM SCT035 BKN060
     FM231200 06012KT P6SM SCT040 BKN090
     FM240000 12008KT P6SM SCT040
     FM240500 03006KT P6SM FEW040=

USA.gov is the U.S. government's official web portal to all federal, state and local government web resources and services.